Spokane Fairchild, WA

1:09 AM PDT on June 26, 2017 (GMT -0700)
Fairchild Air Force Base

Weather History for KSKA - April, 2013

Change the Weather History Date:

Saturday, April 20, 2013

  Actual Average Record
Temperature  
Mean Temperature 47 °F -  
Max Temperature 59 °F 56 °F 79 °F (2016)
Min Temperature 35 °F 35 °F 25 °F (2008)
Degree Days  
Heating Degree Days 18    
Moisture  
Dew Point 35 °F    
Average Humidity 72    
Maximum Humidity 100    
Minimum Humidity 37    
Precipitation  
Precipitation 0.00 in - - ()
Sea Level Pressure  
Sea Level Pressure 30.03 in    
Wind  
Wind Speed 14 mph (SSW)    
Max Wind Speed 30 mph    
Max Gust Speed 37 mph    
Visibility 10 miles    
Events      
Averages and records for this station are not official NWS values.
T = Trace of Precipitation, MM = Missing Value Source: NWS Daily Summary

Daily Weather History Graph

Daily Weather History Graph

Search for Another Location

Airport or City:

Trip Planner

Search our weather history database for the weather conditions in past years. The results will help you decide how hot, cold, wet, or windy it might be!

Date:

Astronomy

Apr. 20, 2013 Rise Set
Actual Time 5:51 AM PDT 7:47 PM PDT
Civil Twilight 5:18 AM PDT 8:20 PM PDT
Nautical Twilight 4:38 AM PDT 9:01 PM PDT
Astronomical Twilight 3:53 AM PDT 9:46 PM PDT
Moon 2:15 PM PDT (4/20) 3:06 AM PDT (4/20)
Length of Visible Light 15h 02m
Length of Day
13h 56m
Waxing Gibbous, 72% of the Moon is Illuminated
Apr 20
Waxing Gibbous
Apr 25
Full
May 2
Last Quarter
May 9
New
May 17
First Quarter

Hourly Weather History & Observations

Time (PDT) Temp. Windchill Dew Point Humidity Pressure Visibility Wind Dir Wind Speed Gust Speed Precip Events Conditions
12:58 AM 41.5 °F 35.0 °F 36.0 °F 81% 29.98 in 10.0 mi SSW 11.5 mph - N/A   Clear
1:58 AM 40.6 °F 33.4 °F 35.1 °F 80% 29.99 in 10.0 mi SSW 12.7 mph - N/A   Clear
2:58 AM 38.8 °F 31.6 °F 34.3 °F 84% 29.99 in 10.0 mi SSW 11.5 mph - N/A   Partly Cloudy
3:58 AM 36.9 °F 30.7 °F 33.6 °F 88% 30.01 in 10.0 mi South 8.1 mph - N/A   Clear
4:30 AM 37.4 °F 30.3 °F 33.8 °F 87% 29.99 in 10.0 mi South 10.4 mph - N/A   Partly Cloudy
4:44 AM 37.4 °F 30.3 °F 33.8 °F 87% 30.00 in 10.0 mi South 10.4 mph - N/A   Partly Cloudy
4:58 AM 36.3 °F 28.4 °F 34.3 °F 93% 30.04 in 10.0 mi South 11.5 mph - 0.00 in   Clear
5:58 AM 35.4 °F 28.4 °F 34.2 °F 95% 30.05 in 10.0 mi South 9.2 mph - N/A   Partly Cloudy
6:17 AM 35.6 °F 28.6 °F 35.6 °F 100% 30.01 in 10.0 mi South 9.2 mph - N/A   Scattered Clouds
6:33 AM 37.4 °F 30.3 °F 35.6 °F 93% 30.02 in 10.0 mi South 10.4 mph - N/A   Mostly Cloudy
6:58 AM 36.7 °F 28.0 °F 35.6 °F 96% 30.07 in 10.0 mi South 13.8 mph - 0.00 in   Overcast
7:03 AM 37.4 °F 28.5 °F 35.6 °F 93% 30.03 in 10.0 mi South 15.0 mph - N/A   Overcast
7:21 AM 37.4 °F 28.9 °F 35.6 °F 93% 30.03 in 10.0 mi South 13.8 mph - N/A   Overcast
7:32 AM 37.4 °F 29.3 °F 35.6 °F 93% 30.03 in 10.0 mi South 12.7 mph - N/A   Overcast
7:58 AM 38.5 °F 30.7 °F 36.3 °F 92% 30.07 in 10.0 mi South 12.7 mph - 0.00 in   Scattered Clouds
8:23 AM 39.2 °F 31.6 °F 37.4 °F 93% 30.04 in 10.0 mi South 12.7 mph - N/A   Mostly Cloudy
8:58 AM 41.5 °F 33.8 °F 37.0 °F 84% 30.09 in 10.0 mi South 15.0 mph - 0.00 in   Overcast
9:12 AM 44.6 °F 37.8 °F 37.4 °F 76% 30.04 in 10.0 mi South 15.0 mph - N/A   Mostly Cloudy
9:29 AM 46.4 °F 38.5 °F 39.2 °F 76% 30.04 in 10.0 mi South 21.9 mph - N/A   Mostly Cloudy
9:58 AM 48.2 °F - 39.0 °F 71% 30.08 in 10.0 mi SSW 19.6 mph 24.2 mph 0.00 in   Partly Cloudy
10:58 AM 51.4 °F - 39.4 °F 63% 30.08 in 10.0 mi South 18.4 mph - N/A   Partly Cloudy
11:58 AM 54.0 °F - 36.9 °F 52% 30.07 in 10.0 mi South 17.3 mph 28.8 mph N/A   Mostly Cloudy
12:58 PM 55.4 °F - 36.3 °F 49% 30.05 in 10.0 mi South 23.0 mph 27.6 mph N/A   Scattered Clouds
1:58 PM 55.6 °F - 35.6 °F 47% 30.04 in 10.0 mi SSW 21.9 mph 29.9 mph N/A   Overcast
2:58 PM 58.5 °F - 35.2 °F 42% 30.01 in 10.0 mi South 23.0 mph 34.5 mph N/A   Partly Cloudy
3:58 PM 59.2 °F - 34.7 °F 40% 30.01 in 10.0 mi SSW 29.9 mph 34.5 mph N/A   Partly Cloudy
4:58 PM 58.8 °F - 34.7 °F 40% 30.01 in 10.0 mi SW 25.3 mph 33.4 mph N/A   Scattered Clouds
5:58 PM 57.7 °F - 31.3 °F 37% 30.00 in 10.0 mi SSW 23.0 mph 36.8 mph N/A   Clear
6:58 PM 54.9 °F - 29.7 °F 38% 30.00 in 10.0 mi SW 27.6 mph 33.4 mph N/A   Clear
7:58 PM 50.0 °F - 30.7 °F 48% 30.01 in 10.0 mi SW 20.7 mph - N/A   Clear
8:58 PM 47.7 °F - 30.7 °F 52% 30.03 in 10.0 mi SW 18.4 mph - N/A   Clear
9:58 PM 45.3 °F 39.0 °F 31.1 °F 58% 30.05 in 10.0 mi SW 13.8 mph - N/A   Clear
10:58 PM 43.2 °F 37.0 °F 31.1 °F 62% 30.06 in 10.0 mi SW 11.5 mph - N/A   Partly Cloudy
11:58 PM 39.4 °F 33.2 °F 30.9 °F 72% 30.06 in 10.0 mi WSW 9.2 mph - N/A   Clear